Location: Randolph Center
(43.9410°N, 72.6080°W)
Time: 18:54:18
(UTC-04:00)

Envisat - Visible Passes

Search period start: 18 June 2018 00:00
Search period end: 28 June 2018 00:00
Orbit: 764 x 766 km, 98.2° (Epoch: 18 June)

Date Brightness Start Highest point End Pass type
(mag) Time Alt. Az. Time Alt. Az. Time Alt. Az.
20 Jun 5.6 21:23:09 10° SW 21:26:24 17° W 21:29:39 10° NW visible
23 Jun 5.4 21:11:19 10° SW 21:15:07 21° W 21:18:57 10° NW visible
25 Jun 5.8 21:39:05 10° WSW 21:41:00 12° W 21:42:55 10° WNW visible
